Location: Newark
(48.1500°N, 2.9667°W)
Time: 01:37:13
(UTC+00:00)

A-11 Canister half - Pass Details

Date: 30 January 2020
Orbit: 1517 x 1683 km, 47.2° (Epoch: 21 February)

Event Time Altitude Azimuth Distance (km) Brightness Sun altitude
Exits shadow 03:15:19 34° 124° (SE) 2,308 10.0 -44.1°
Drops below altitude 10° 03:19:54 10° 117° (ESE) 3,687 11.3 -43.4°
Sets 03:22:57 0° 116° (ESE) 4,679 12.0 -42.9°
